Showing default

HULIANWANG DIGUI-01, 62323

Orbit data source: Space-Track

HULIANWANG DIGUI-01, 62323 is a payload satellite owned by Zhongguo Xingwang (CN) in LEO that was launched on Mon, 16 Dec 2024 UTC via a CHANG ZHENG 5B/YZ-2 launch vehicle from the Wenchang Satellite Launch Center (WSC). Payload-class satellites include a variety of spacecraft equipped with specific instruments for various scientific and technological missions. These include communications satellites like Starlink; space stations such as the ISS; scientific satellites like the Hubble; Earth observation satellites from companies like Planet Labs, Umbra, and HawkEye 360; GPS; miniature CubeSats for education and research; and military/defense satellites.

Loading next visibility...
Identifier
62323, 2024-240A
Orbit
LEO
Country
Flag of CNCN / PRC
Related business
Manufacturer
CAST?
Mission
Operational Civil Communications
Bus & Motor
XINGWANG CL, Unknown motor
Mass
~800 kg wet, ~800 kg dry
Launch date (UTC)
2024-12-16 (1 year ago)
Launch vehicle
CHANG ZHENG 5B/YZ-2
Launch site
Wenchang Satellite Launch Center (WSC)
Object type
Payload
Rocket body
Debris
Shape & HBR
Box + 2 Pan, 5.0 m
Radar Cross Section
5.935 m², Large (>1 m²)

Expand to show TLE details & history
Last TLE update: 3 hours ago

TLE from 3 hours ago
0 HULIANWANG DIGUI-01
1 62323U 24240A   26126.52226921  .00000060  00000-0  10605-3 0  9995
2 62323  86.5024 357.2970 0001718  73.0314 287.1008 13.24408012 67128
Epoch: 2026-05-06T12:32Z
TLE epoch observation values (Epoch: 2026-05-06T12:32:04.059Z)
Latitude
-0.00006°
Longitude
-55.10147°
Altitude
1,170.443 km
Speed
7.268 km/s
True Right ascension
23h 49m 11s
True Declination
0° 00' 00"
Sunlit
Object was in daylight at epoch
Visualization orbit readout
Latitude
Unknown
Longitude
Unknown
Altitude
Unknown
Speed
Unknown
Apparent Right ascension
Unknown
Apparent Declination
Unknown
Sunlit
N/A
Visualization observer readout
Local Sidereal Time
23:45:01
Azimuth
Unknown
Elevation
Unknown
Doppler factor
Unknown
Orbital elements
Apogee altitude
1,166.346 km
Perigee altitude
1,163.754 km
Semi-major axis
7,543.187 km
Eccentricity
0.00017
Inclination
86.5024°
RAAN
357.297°
Arg. of periapsis
73.0314°
True anomaly
287.08198°
Mean anomaly
287.1008°
Eccentric anomaly
287.09139°
Mean motion
3.31292 °/min
Orbital period
108.67 mins
BSTAR
0.00010605
Loading maneuver chart data...
Computing Atmospheric mass density...
Loading historical data...
Loading historical data...
Loading historical data...
Loading historical data...
Loading historical data...
Loading historical data...
Loading historical data...

Documentation

Showing up to 5 results
|